This demonstration page uses our WeatherBlox Daily Observations layout. Learn more.

39.29038, -76.61219

Hourly Observations for July 23, 2015

Temp ( °F °C ) Dew Point ( °F °C ) Humidity (%) Winds ( mph kmh ) Pressure ( in mb ) Visibility ( mi km ) Precip ( " mm )
12:54 am 00:54 undefined 75 24 52 11 44 44 undefined N/A 29.94 1014 N/A 0 0
1:54 am 01:54 Cloudy 75 24 52 11 44 44 undefined N/A 29.94 1014 N/A 0 0
2:54 am 02:54 undefined 73 23 54 12 50 50 undefined N/A 29.97 1015 N/A 0 0
3:54 am 03:54 Mostly Clear 73 23 54 12 50 50 undefined N/A 29.94 1014 N/A 0 0
4:54 am 04:54 Mostly Cloudy 72 22 55 13 57 57 undefined N/A 29.97 1015 N/A 0 0
5:54 am 05:54 Mostly Cloudy 72 22 54 12 53 53 undefined N/A 29.97 1015 N/A 0 0
6:54 am 06:54 undefined 72 22 54 12 53 53 undefined N/A 29.97 1015 N/A 0 0
7:54 am 07:54 undefined 73 23 52 11 47 47 undefined N/A 30 1016 N/A 0 0
8:54 am 08:54 Cloudy 73 23 54 12 50 50 undefined N/A 30 1016 N/A 0 0
9:54 am 09:54 Cloudy 75 24 52 11 44 44 undefined N/A 30 1016 N/A 0 0
10:54 am 10:54 undefined 79 26 52 11 39 39 undefined N/A 30 1016 N/A 0 0
11:54 am 11:54 Mostly Cloudy 79 26 52 11 39 39 undefined N/A 29.97 1015 N/A 0 0
12:54 pm 12:54 undefined 81 27 52 11 37 37 undefined N/A 29.97 1015 N/A 0 0
1:54 pm 13:54 undefined 81 27 54 12 39 39 undefined N/A 29.97 1015 N/A 0 0
2:54 pm 14:54 Mostly Cloudy 82 28 50 10 32 32 undefined N/A 29.94 1014 N/A 0 0
3:54 pm 15:54 undefined 82 28 54 12 37 37 undefined N/A 29.94 1014 N/A 0 0
4:54 pm 16:54 undefined 82 28 54 12 37 37 undefined N/A 29.94 1014 N/A 0 0
5:54 pm 17:54 Mostly Sunny 82 28 54 12 37 37 undefined N/A 29.94 1014 N/A 0 0
6:54 pm 18:54 Mostly Cloudy 81 27 54 12 39 39 undefined N/A 29.94 1014 N/A 0 0
7:54 pm 19:54 Mostly Cloudy 81 27 54 12 39 39 undefined N/A 29.94 1014 N/A 0 0
8:54 pm 20:54 undefined 79 26 54 12 42 42 undefined N/A 29.94 1014 N/A 0 0
9:54 pm 21:54 Cloudy 79 26 52 11 39 39 undefined N/A 29.97 1015 N/A 0 0
10:54 pm 22:54 undefined 77 25 55 13 47 47 undefined N/A 29.94 1014 N/A 0 0
11:54 pm 23:54 Mostly Cloudy 75 24 57 14 54 54 undefined N/A 29.97 1015 N/A 0 0

Powered by AerisWeather